[[{"header":{"parameterUnit":"m.s-1","parameterCategory":1,"la1":30.2992,"la2":30.254,"lo1":-89.0895,"lo2":-89.0443,"dy":0.0025,"dx":0.0025,"nx":19,"ny":19,"refTime":"2026-03-17T03:00:00:Z","depth":0,"parameterNumber":2,"parameterNumberName":"U-component_of_WINDS"},"data":[0,0,0,-1.8563,-1.8565,-1.8683,-1.8683,-1.8841,-1.8842,0,0,0,0,0,0,0,0,0,0,0,-1.8532,-1.8534,-1.8562,-1.8565,-1.8683,-1.8683,-1.8841,-1.8842,0,0,0,0,0,0,0,0,0,0,0,-1.8532,-1.8533,-1.8535,-1.8566,-1.8683,-1.8683,-1.884,-1.8749,0,0,0,0,0,0,0,0,0,0,-1.8633,-1.8611,-1.8533,-1.8535,-1.8567,-1.8683,-1.8683,-1.8744,-1.8755,-1.8791,0,-1.8825,0,-1.8836,-1.8854,-1.8854,0,0,0,-1.8562,-1.8602,-1.8629,-1.8535,-1.8568,-1.8683,-1.8629,-1.875,-1.8762,-1.8804,-1.8827,-1.8832,-1.8839,-1.8855,-1.8855,-1.9075,-1.9077,0,0,-1.8555,-1.8556,-1.8621,-1.8637,-1.862,-1.8625,-1.8633,-1.8757,-1.8781,-1.8827,-1.8836,-1.8841,-1.8856,-1.8857,-1.9074,-1.9076,0,0,0,-1.8539,-1.8552,-1.8576,-1.8631,-1.8651,-1.8629,-1.8637,-1.8776,-1.8784,-1.8838,-1.8843,-1.8857,-1.8859,-1.9073,-1.9075,-1.9134,0,0,0,-1.8535,-1.8542,-1.8573,-1.8575,-1.8649,-1.8715,-1.8653,-1.8775,-1.8789,-1.8842,-1.8857,-1.886,-1.9072,-1.9074,-1.913,-1.9162,0,0,0,-1.8523,-1.8541,-1.856,-1.8575,-1.8626,-1.8713,-1.8728,-1.8778,-1.8793,-1.8854,-1.8861,-1.9071,-1.9074,-1.9126,-1.9155,-1.9219,0,0,0,-1.8511,-1.8612,-1.8561,-1.8675,-1.8625,-1.8749,-1.8727,-1.882,-1.888,-1.8858,-1.9072,-1.9075,-1.9124,-1.9151,-1.9215,-1.9273,-1.9297,0,0,-1.8638,-1.8627,-1.8694,-1.8652,-1.8786,-1.8731,-1.8874,-1.8928,-1.8933,-1.9028,-1.9033,-1.9131,-1.9155,-1.9218,-1.9434,-1.9453,0,0,0,-1.8735,-1.8783,-1.8818,-1.8875,-1.8919,-1.8958,-1.899,-1.901,-1.909,-1.8982,-1.9172,-1.9186,-1.9223,-1.925,-1.9267,-1.9298,-1.9088,-1.9087,-1.9087,-1.8917,-1.8917,-1.9028,-1.9042,-1.9098,-1.9129,-1.9174,-1.9206,-1.9191,-1.9236,-1.9264,-1.9394,-1.9427,-1.9439,-1.9472,-1.9295,-1.9295,-1.9295,-1.9295,-1.9103,-1.9171,-1.9147,-1.9246,-1.9246,-1.9329,-1.9362,-1.9349,-1.9426,-1.9374,-1.9406,-1.9349,-1.946,-1.9488,-1.93,-1.9299,-1.9298,-1.9298,-1.9298,-1.9222,-1.9254,-1.9276,-1.9357,-1.9419,-1.943,-1.9505,-1.9502,-1.95,-1.9532,-1.9561,-1.956,-1.9558,-1.9546,-1.9547,-1.9547,-1.9548,-1.9548,-1.9548,-1.9336,-1.9359,-1.9422,-1.9475,-1.951,-1.9557,-1.9588,-1.9623,-1.966,-1.9652,-1.9652,-1.9632,-1.9471,-1.943,-1.9555,-1.9554,-1.9553,-1.9552,-1.9552,-1.9524,-1.9481,-1.9578,-1.9613,-1.9675,-1.9736,-1.9731,-1.9801,-1.983,-1.9866,-1.9839,-1.972,-1.9708,-1.9695,-1.9661,-1.9839,-1.9839,-1.9839,-1.9839,-1.9624,-1.9617,-1.9715,-1.9771,-1.9826,-1.9831,-1.994,-1.9965,-1.9984,-2.0001,-1.9975,-1.993,-1.9917,-1.9913,-1.9895,-1.9863,-2.0088,-2.0088,-2.0089,-1.9739,-1.9737,-1.9831,-1.9848,-1.9896,-1.9936,-2.0038,-2.0103,-2.0116,-2.0099,-2.0014,-2.0004,-1.9931,-1.9907,-1.9888,-1.9861,-1.9802,0,0]},{"header":{"parameterUnit":"m.s-1","parameterCategory":1,"la1":30.2992,"la2":30.254,"lo1":-89.0895,"lo2":-89.0443,"dy":0.0025,"dx":0.0025,"nx":19,"ny":19,"refTime":"2026-03-17T03:00:00:Z","depth":0,"parameterNumber":3,"parameterNumberName":"V-component_of_WINDS"},"data":[0,0,0,-1.6074,-1.6075,-1.6119,-1.6119,-1.6178,-1.6179,0,0,0,0,0,0,0,0,0,0,0,-1.6064,-1.6064,-1.6074,-1.6075,-1.6119,-1.6119,-1.6178,-1.6179,0,0,0,0,0,0,0,0,0,0,0,-1.6064,-1.6064,-1.6065,-1.6076,-1.6119,-1.6119,-1.6178,-1.6144,0,0,0,0,0,0,0,0,0,0,-1.6101,-1.6094,-1.6064,-1.6065,-1.6076,-1.6119,-1.6119,-1.6142,-1.6146,-1.616,0,-1.6173,0,-1.6177,-1.6183,-1.6183,0,0,0,-1.6074,-1.609,-1.61,-1.6065,-1.6076,-1.6119,-1.6099,-1.6144,-1.6148,-1.6165,-1.6174,-1.6176,-1.6178,-1.6183,-1.6184,-1.6269,-1.6269,0,0,-1.6071,-1.6073,-1.6097,-1.6103,-1.6097,-1.6098,-1.61,-1.6147,-1.6157,-1.6174,-1.6177,-1.6179,-1.6184,-1.6184,-1.6268,-1.6269,0,0,0,-1.6065,-1.6071,-1.608,-1.61,-1.6108,-1.6099,-1.6102,-1.6155,-1.6157,-1.6178,-1.6179,-1.6184,-1.6185,-1.6268,-1.6269,-1.6294,0,0,0,-1.6064,-1.6068,-1.6079,-1.608,-1.6107,-1.6132,-1.6109,-1.6154,-1.6159,-1.6179,-1.6184,-1.6185,-1.6267,-1.6268,-1.6292,-1.6305,0,0,0,-1.606,-1.6068,-1.6075,-1.608,-1.6099,-1.6131,-1.6137,-1.6155,-1.616,-1.6183,-1.6186,-1.6267,-1.6268,-1.629,-1.6303,-1.6327,0,0,0,-1.6057,-1.6098,-1.6075,-1.6121,-1.6099,-1.6147,-1.6136,-1.6172,-1.6195,-1.6184,-1.6267,-1.6269,-1.629,-1.6301,-1.6325,-1.6348,-1.6357,0,0,-1.611,-1.6104,-1.6131,-1.6112,-1.6164,-1.614,-1.6195,-1.6215,-1.6215,-1.6251,-1.6253,-1.6292,-1.6302,-1.6327,-1.6412,-1.642,0,0,0,-1.6148,-1.6168,-1.6181,-1.6202,-1.6217,-1.6231,-1.6241,-1.6248,-1.6277,-1.6234,-1.6308,-1.6314,-1.6328,-1.6339,-1.6345,-1.6357,-1.6274,-1.6274,-1.6273,-1.6227,-1.6224,-1.6267,-1.627,-1.629,-1.6299,-1.6315,-1.6326,-1.6318,-1.6336,-1.6346,-1.6398,-1.6411,-1.6415,-1.6427,-1.6358,-1.6358,-1.6358,-1.6358,-1.6303,-1.6329,-1.6316,-1.6354,-1.635,-1.6382,-1.6391,-1.6384,-1.6412,-1.6391,-1.6403,-1.6379,-1.6424,-1.6434,-1.636,-1.636,-1.636,-1.636,-1.6359,-1.6353,-1.6365,-1.6372,-1.6401,-1.6423,-1.6423,-1.645,-1.6446,-1.6443,-1.6455,-1.6465,-1.6464,-1.6462,-1.646,-1.646,-1.646,-1.646,-1.6461,-1.6461,-1.6403,-1.6409,-1.6432,-1.645,-1.6462,-1.6477,-1.6484,-1.6496,-1.6507,-1.6502,-1.6502,-1.6492,-1.6429,-1.6413,-1.6463,-1.6463,-1.6463,-1.6462,-1.6462,-1.648,-1.6462,-1.6497,-1.6509,-1.6528,-1.6549,-1.6543,-1.6566,-1.6575,-1.6587,-1.6574,-1.6528,-1.6523,-1.6518,-1.6504,-1.6575,-1.6575,-1.6575,-1.6575,-1.6522,-1.6519,-1.6553,-1.6571,-1.6589,-1.6586,-1.6625,-1.663,-1.6633,-1.6638,-1.6627,-1.6609,-1.6604,-1.6601,-1.6594,-1.6581,-1.6671,-1.6671,-1.6671,-1.6569,-1.6566,-1.6601,-1.6603,-1.6616,-1.6628,-1.6663,-1.6684,-1.6684,-1.6675,-1.6641,-1.6637,-1.6608,-1.6599,-1.659,-1.6579,-1.6555,0,0]}]]